TimeEDT,TemperatureF,Dew PointF,Humidity,Sea Level PressureIn,VisibilityMPH,Wind Direction,Wind SpeedMPH,Gust SpeedMPH,PrecipitationIn,Events,Conditions,WindDirDegrees,DateUTC
12:51 AM,39.0,30.9,73,30.05,10.0,Calm,Calm,-,N/A,,Partly Cloudy,0,2013-05-15 04:51:00
1:51 AM,36.0,30.9,82,30.05,10.0,Calm,Calm,-,N/A,,Clear,0,2013-05-15 05:51:00
2:51 AM,37.0,30.9,79,30.05,10.0,Calm,Calm,-,N/A,,Clear,0,2013-05-15 06:51:00
3:51 AM,36.0,30.9,82,30.04,10.0,Calm,Calm,-,N/A,,Clear,0,2013-05-15 07:51:00
4:51 AM,35.1,30.9,85,30.03,10.0,Calm,Calm,-,N/A,,Partly Cloudy,0,2013-05-15 08:51:00
5:51 AM,34.0,30.9,89,30.02,10.0,Calm,Calm,-,N/A,Fog,Patches of Fog,0,2013-05-15 09:51:00
6:46 AM,37.4,35.6,93,30.02,10.0,Calm,Calm,-,N/A,,Mostly Cloudy,0,2013-05-15 10:46:00
6:51 AM,39.0,35.1,86,30.02,10.0,Calm,Calm,-,N/A,,Mostly Cloudy,0,2013-05-15 10:51:00
7:51 AM,46.9,34.0,61,29.99,10.0,Calm,Calm,-,N/A,,Scattered Clouds,0,2013-05-15 11:51:00
8:51 AM,51.1,30.0,44,29.96,10.0,SSE,11.5,23.0,N/A,,Mostly Cloudy,160,2013-05-15 12:51:00
9:51 AM,53.1,32.0,45,29.94,10.0,SSE,8.1,-,N/A,,Overcast,160,2013-05-15 13:51:00
10:51 AM,54.0,34.0,47,29.92,10.0,South,12.7,17.3,N/A,,Overcast,190,2013-05-15 14:51:00
11:51 AM,55.9,35.1,45,29.89,10.0,South,13.8,-,0.00,Rain,Light Rain,180,2013-05-15 15:51:00
12:51 PM,55.0,37.9,53,29.81,10.0,South,19.6,34.5,0.00,Rain,Light Rain,180,2013-05-15 16:51:00
1:51 PM,52.0,46.0,80,29.80,10.0,South,11.5,21.9,0.02,,Overcast,170,2013-05-15 17:51:00
2:41 PM,53.6,48.2,82,29.78,10.0,South,10.4,25.3,0.01,Rain-Thunderstorm,Light Thunderstorms and Rain,190,2013-05-15 18:41:00
2:51 PM,53.1,48.9,86,29.73,6.0,South,18.4,27.6,0.02,Rain-Thunderstorm,Thunderstorms and Rain,170,2013-05-15 18:51:00
3:13 PM,53.6,48.2,82,29.70,10.0,SSE,13.8,25.3,0.04,Rain,Light Rain,160,2013-05-15 19:13:00
3:51 PM,55.0,48.0,77,29.65,10.0,SSE,15.0,23.0,0.04,,Mostly Cloudy,160,2013-05-15 19:51:00
4:51 PM,61.0,48.0,62,29.68,10.0,South,15.0,21.9,N/A,,Scattered Clouds,180,2013-05-15 20:51:00
5:51 PM,64.9,48.9,56,29.62,10.0,South,9.2,23.0,N/A,,Scattered Clouds,180,2013-05-15 21:51:00
6:51 PM,64.0,46.9,54,29.61,10.0,South,13.8,24.2,N/A,,Scattered Clouds,170,2013-05-15 22:51:00
7:51 PM,64.0,48.0,56,29.60,10.0,South,12.7,21.9,N/A,,Scattered Clouds,170,2013-05-15 23:51:00
8:51 PM,63.0,50.0,63,29.65,10.0,South,8.1,-,N/A,,Mostly Cloudy,190,2013-05-16 00:51:00
9:51 PM,59.0,50.0,72,29.68,10.0,South,5.8,-,N/A,,Partly Cloudy,170,2013-05-16 01:51:00
10:51 PM,60.1,48.0,64,29.68,10.0,West,4.6,-,N/A,,Partly Cloudy,260,2013-05-16 02:51:00
11:51 PM,53.1,48.0,83,29.70,10.0,Calm,Calm,-,N/A,,Partly Cloudy,0,2013-05-16 03:51:00